Location: Avully
(45.9633°N, 6.0228°E)
Time: 20:03:50
(UTC+00:00)

Cosmos 2360 Rocket - Pass Details

Date: 14 August 2024
Orbit: 834 x 843 km, 71.0° (Epoch: 10 September)

Event Time Altitude Azimuth Distance (km) Brightness Sun altitude
Exits shadow 23:52:36 68° 334° (NNW) 905 2.4 -30.0°
Drops below altitude 10° 23:57:49 10° 23° (NNE) 2,468 5.4 -30.0°
Sets 00:00:17 0° 26° (NNE) 3,406 6.4 -29.9°
